AFL1712 UUEE-UHHH

Flight info

Callsign AFL1712
Flight time 7h 9m
Altitude 33000
Route K0917F330 DCT RILPO T753 TUNOB T791 ADMON T541 SONKA/K0896F350 T541 LEBNA L168 IVADA DCT
Aircraft B77W/H-VGDW/C

Departure

Time 2026-04-22 20:13
Airport Sheremetyevo International Airport (UUEE)

Arrival

Time 2026-04-23 03:22
Airport Khabarovsk Novy Airport (UHHH)
Time Latitude Longitude Altitude Speed Heading
2026-04-22 18:46 55.97400 37.39167 648 ft 0 kts 345°
2026-04-22 19:52 55.97390 37.39171 644 ft 4 kts 350°
2026-04-22 19:52 55.97364 37.39174 644 ft 4 kts 13°
2026-04-22 19:52 55.97341 37.39154 645 ft 4 kts 45°
2026-04-22 19:53 55.97326 37.39117 651 ft 4 kts 71°
2026-04-22 19:53 55.97323 37.39101 649 ft 0 kts 75°
2026-04-22 19:57 55.97331 37.39152 650 ft 10 kts 75°
2026-04-22 19:57 55.97350 37.39279 648 ft 11 kts 75°
2026-04-22 19:57 55.97369 37.39408 648 ft 11 kts 75°
2026-04-22 19:58 55.97389 37.39537 645 ft 11 kts 75°
2026-04-22 19:58 55.97408 37.39664 647 ft 11 kts 75°
2026-04-22 19:58 55.97417 37.39792 650 ft 11 kts 113°
2026-04-22 19:58 55.97363 37.39883 650 ft 11 kts 125°
2026-04-22 19:59 55.97358 37.40014 647 ft 11 kts 78°
2026-04-22 20:00 55.97502 37.40967 650 ft 20 kts 75°
2026-04-22 20:00 55.97537 37.41204 647 ft 20 kts 75°
2026-04-22 20:01 55.97571 37.41436 647 ft 11 kts 75°
2026-04-22 20:01 55.97572 37.41441 649 ft 0 kts 75°
2026-04-22 20:02 55.97576 37.41464 651 ft 7 kts 75°
2026-04-22 20:02 55.97604 37.41656 650 ft 24 kts 75°
2026-04-22 20:03 55.97650 37.41955 647 ft 25 kts 75°
2026-04-22 20:03 55.97696 37.42259 646 ft 25 kts 75°
2026-04-22 20:03 55.97700 37.42283 644 ft 0 kts 75°
2026-04-22 20:08 55.97701 37.42292 644 ft 2 kts 75°
2026-04-22 20:08 55.97705 37.42321 670 ft 2 kts 75°
2026-04-22 20:08 55.97710 37.42348 671 ft 2 kts 75°
2026-04-22 20:08 55.97714 37.42377 645 ft 2 kts 75°
2026-04-22 20:09 55.97718 37.42405 650 ft 2 kts 75°
2026-04-22 20:09 55.97722 37.42433 649 ft 2 kts 75°
2026-04-22 20:09 55.97727 37.42461 648 ft 2 kts 75°
2026-04-22 20:09 55.97740 37.42550 645 ft 11 kts 75°
2026-04-22 20:10 55.97760 37.42684 646 ft 11 kts 75°
2026-04-22 20:10 55.97780 37.42816 647 ft 11 kts 75°
2026-04-22 20:10 55.97821 37.43094 648 ft 11 kts 75°
2026-04-22 20:11 55.97841 37.43228 646 ft 11 kts 75°
2026-04-22 20:11 55.97862 37.43362 650 ft 11 kts 75°
2026-04-22 20:11 55.97882 37.43497 646 ft 11 kts 75°
2026-04-22 20:11 55.97914 37.43708 646 ft 20 kts 75°
2026-04-22 20:12 55.97943 37.43906 648 ft 13 kts 78°
2026-04-22 20:12 55.97895 37.44034 649 ft 13 kts 151°
2026-04-22 20:12 55.97838 37.44073 647 ft 13 kts 165°
2026-04-22 20:12 55.97758 37.43866 651 ft 32 kts 254°
2026-04-22 20:13 55.97639 37.43075 645 ft 100 kts 256°
2026-04-22 20:13 55.97407 37.41515 646 ft 158 kts 255°
2026-04-22 20:13 55.97086 37.39367 725 ft 191 kts 255°
2026-04-22 20:13 55.96751 37.37096 1347 ft 187 kts 254°
2026-04-22 20:14 55.96431 37.35030 2341 ft 166 kts 257°
2026-04-22 20:14 55.96113 37.33025 2788 ft 172 kts 258°
2026-04-22 20:14 55.95976 37.30923 3065 ft 173 kts 287°
2026-04-22 20:14 55.96690 37.29220 3370 ft 180 kts 322°
2026-04-22 20:15 55.97875 37.28359 3779 ft 191 kts 343°
2026-04-22 20:15 55.99293 37.28486 3905 ft 216 kts
2026-04-22 20:15 56.00815 37.28988 4100 ft 234 kts
2026-04-22 20:15 56.02415 37.30096 4335 ft 257 kts 22°
2026-04-22 20:16 56.03988 37.31818 4735 ft 271 kts 27°
2026-04-22 20:16 56.05597 37.33705 5275 ft 279 kts 28°
2026-04-22 20:16 56.07214 37.35609 5902 ft 283 kts 27°
2026-04-22 20:16 56.08872 37.37545 6540 ft 285 kts 27°
2026-04-22 20:17 56.09985 37.38833 6960 ft 287 kts 27°
2026-04-22 20:17 56.11674 37.40771 7607 ft 289 kts 28°
2026-04-22 20:17 56.13952 37.43363 8419 ft 294 kts 27°
2026-04-22 20:17 56.15694 37.45333 9060 ft 296 kts 27°
2026-04-22 20:18 56.16854 37.46642 9459 ft 298 kts 27°
2026-04-22 20:18 56.18628 37.48638 10015 ft 302 kts 27°
2026-04-22 20:18 56.20419 37.50648 10430 ft 314 kts 28°
2026-04-22 20:18 56.22335 37.52793 10590 ft 335 kts 28°
2026-04-22 20:19 56.24381 37.55086 10783 ft 357 kts 28°
2026-04-22 20:19 56.26557 37.57526 11036 ft 376 kts 28°
2026-04-22 20:19 56.28798 37.60051 11615 ft 386 kts 28°
2026-04-22 20:19 56.31097 37.62647 12377 ft 392 kts 28°
2026-04-22 20:20 56.33426 37.65285 13230 ft 396 kts 28°
2026-04-22 20:20 56.35768 37.67940 14004 ft 399 kts 29°
2026-04-22 20:20 56.38133 37.70623 14769 ft 404 kts 29°
2026-04-22 20:20 56.40509 37.73325 15468 ft 409 kts 29°
2026-04-22 20:21 56.42942 37.76086 16181 ft 414 kts 29°
2026-04-22 20:21 56.45399 37.78876 16881 ft 419 kts 29°
2026-04-22 20:21 56.47887 37.81709 17586 ft 423 kts 30°
2026-04-22 20:21 56.50397 37.84573 18207 ft 428 kts 30°
2026-04-22 20:22 56.52898 37.87431 18826 ft 432 kts 30°
2026-04-22 20:22 56.55457 37.90361 19448 ft 435 kts 29°
2026-04-22 20:22 56.58014 37.93292 20041 ft 439 kts 29°
2026-04-22 20:22 56.60628 37.96295 20630 ft 444 kts 29°
2026-04-22 20:23 56.63263 37.99324 21096 ft 451 kts 29°
2026-04-22 20:23 56.65910 38.02373 21661 ft 455 kts 29°
2026-04-22 20:23 56.68578 38.05452 22262 ft 458 kts 29°
2026-04-22 20:23 56.71286 38.08583 22853 ft 461 kts 29°
2026-04-22 20:24 56.74020 38.11750 23326 ft 465 kts 29°
2026-04-22 20:24 56.76763 38.14932 23771 ft 469 kts 29°
2026-04-22 20:24 56.79499 38.18115 24249 ft 472 kts 29°
2026-04-22 20:24 56.82280 38.21353 24705 ft 475 kts 29°
2026-04-22 20:25 56.85093 38.24632 25152 ft 479 kts 29°
2026-04-22 20:25 56.87850 38.28026 25501 ft 486 kts 34°
2026-04-22 20:25 56.90483 38.31959 25924 ft 490 kts 37°
2026-04-22 20:25 56.93082 38.36064 26385 ft 492 kts 38°
2026-04-22 20:26 56.95646 38.40155 26808 ft 495 kts 38°
2026-04-22 20:26 56.98267 38.44332 27193 ft 498 kts 38°
2026-04-22 20:26 57.00875 38.48473 27571 ft 501 kts 38°
2026-04-22 20:26 57.03534 38.52682 27941 ft 504 kts 37°
2026-04-22 20:27 57.06213 38.56913 28325 ft 507 kts 37°
2026-04-22 20:27 57.08868 38.61107 28652 ft 509 kts 37°
2026-04-22 20:27 57.11571 38.65382 28971 ft 512 kts 37°
2026-04-22 20:27 57.14281 38.69679 29288 ft 514 kts 37°
2026-04-22 20:28 57.16969 38.73950 29625 ft 514 kts 38°
2026-04-22 20:28 57.19684 38.78278 30028 ft 512 kts 38°
2026-04-22 20:28 57.22344 38.82527 30487 ft 508 kts 38°
2026-04-22 20:28 57.25021 38.86811 30928 ft 505 kts 38°
2026-04-22 20:29 57.27676 38.91067 31338 ft 504 kts 38°
2026-04-22 20:29 57.30295 38.95271 31668 ft 503 kts 38°
2026-04-22 20:29 57.32952 38.99545 31970 ft 503 kts 38°
2026-04-22 20:29 57.35594 39.03805 32298 ft 502 kts 38°
2026-04-22 20:30 57.38218 39.08042 32355 ft 505 kts 38°
2026-04-22 20:30 57.43523 39.16638 32362 ft 503 kts 38°
2026-04-22 20:31 57.48739 39.25122 32382 ft 499 kts 38°
2026-04-22 20:31 57.53989 39.33678 32367 ft 500 kts 39°
2026-04-22 20:32 57.59228 39.42245 32372 ft 501 kts 39°
2026-04-22 20:32 57.64441 39.50807 32366 ft 502 kts 39°
2026-04-22 20:33 57.69710 39.59496 32364 ft 503 kts 39°
2026-04-22 20:33 57.74945 39.68163 32367 ft 505 kts 39°
2026-04-22 20:34 57.80192 39.76889 32362 ft 506 kts 39°
2026-04-22 20:34 57.85469 39.85697 32356 ft 506 kts 39°
2026-04-22 20:35 57.90712 39.94505 32354 ft 506 kts 39°
2026-04-22 20:35 57.95948 40.03386 32356 ft 507 kts 39°
2026-04-22 20:36 58.01162 40.12266 32347 ft 507 kts 39°
2026-04-22 20:36 58.06413 40.21241 32342 ft 507 kts 40°
2026-04-22 20:37 58.11604 40.30145 32337 ft 506 kts 40°
2026-04-22 20:37 58.16834 40.39152 32339 ft 506 kts 40°
2026-04-22 20:38 58.22045 40.48084 32335 ft 506 kts 39°
2026-04-22 20:38 58.27258 40.56999 32330 ft 506 kts 39°
2026-04-22 20:39 58.32478 40.65970 32334 ft 506 kts 40°
2026-04-22 20:39 58.37682 40.74962 32351 ft 506 kts 40°
2026-04-22 20:40 58.42915 40.84049 32337 ft 507 kts 40°
2026-04-22 20:40 58.48110 40.93106 32329 ft 507 kts 40°
2026-04-22 20:41 58.53291 41.02176 32331 ft 507 kts 40°
2026-04-22 20:41 58.58506 41.11344 32326 ft 507 kts 40°
2026-04-22 20:42 58.63692 41.20500 32329 ft 507 kts 40°
2026-04-22 20:42 58.68897 41.29729 32323 ft 507 kts 40°
2026-04-22 20:43 58.74058 41.38918 32322 ft 507 kts 40°
2026-04-22 20:43 58.79244 41.48137 32318 ft 507 kts 40°
2026-04-22 20:44 58.84484 41.57230 32318 ft 507 kts 40°
2026-04-22 20:44 58.89729 41.66316 32318 ft 507 kts 40°
2026-04-22 20:45 58.94953 41.75437 32316 ft 507 kts 40°
2026-04-22 20:45 59.00180 41.84627 32320 ft 507 kts 40°
2026-04-22 20:46 59.08017 41.98489 32319 ft 508 kts 40°
2026-04-22 20:46 59.13226 42.07749 32317 ft 508 kts 40°
2026-04-22 20:47 59.18452 42.17081 32321 ft 508 kts 41°
2026-04-22 20:47 59.23649 42.26400 32321 ft 508 kts 41°
2026-04-22 20:48 59.28839 42.35746 32324 ft 509 kts 41°
2026-04-22 20:48 59.34039 42.45150 32321 ft 509 kts 41°
2026-04-22 20:49 59.39223 42.54571 32321 ft 509 kts 41°
2026-04-22 20:49 59.44432 42.64074 32322 ft 510 kts 41°
2026-04-22 20:50 59.49596 42.73539 32312 ft 510 kts 41°
2026-04-22 20:50 59.54792 42.83103 32311 ft 509 kts 41°
2026-04-22 20:51 59.59978 42.92692 32318 ft 509 kts 41°
2026-04-22 20:51 59.65115 43.02232 32317 ft 509 kts 42°
2026-04-22 20:52 59.70254 43.11819 32331 ft 509 kts 42°
2026-04-22 20:52 59.75391 43.21445 32325 ft 509 kts 42°
2026-04-22 20:53 59.80554 43.31161 32323 ft 509 kts 42°
2026-04-22 20:53 59.85670 43.40837 32319 ft 510 kts 42°
2026-04-22 20:54 59.90796 43.50568 32322 ft 510 kts 42°
2026-04-22 20:54 59.95893 43.60496 32319 ft 511 kts 46°
2026-04-22 20:55 60.00584 43.71108 32325 ft 511 kts 48°
2026-04-22 20:55 60.05217 43.81852 32319 ft 512 kts 48°
2026-04-22 20:56 60.09900 43.92689 32319 ft 512 kts 48°
2026-04-22 20:56 60.14557 44.03446 32318 ft 512 kts 48°
2026-04-22 20:57 60.19219 44.14249 32319 ft 513 kts 48°
2026-04-22 20:57 60.23880 44.25107 32320 ft 513 kts 49°
2026-04-22 20:58 60.28557 44.36059 32317 ft 513 kts 49°
2026-04-22 20:58 60.33189 44.46957 32319 ft 513 kts 49°
2026-04-22 20:59 60.37824 44.57915 32316 ft 513 kts 49°
2026-04-22 20:59 60.42466 44.68941 32315 ft 513 kts 49°
2026-04-22 21:00 60.47084 44.79965 32317 ft 513 kts 49°
2026-04-22 21:00 60.51671 44.90967 32318 ft 513 kts 49°
2026-04-22 21:01 60.56287 45.02094 32319 ft 513 kts 49°
2026-04-22 21:01 60.60880 45.13212 32322 ft 513 kts 49°
2026-04-22 21:02 60.65449 45.24351 32319 ft 513 kts 50°
2026-04-22 21:02 60.70004 45.35562 32317 ft 513 kts 50°
2026-04-22 21:03 60.74557 45.46801 32324 ft 513 kts 50°
2026-04-22 21:03 60.79116 45.57982 32316 ft 513 kts 50°
2026-04-22 21:04 60.83670 45.69165 32315 ft 512 kts 50°
2026-04-22 21:04 60.88214 45.80395 32316 ft 512 kts 50°
2026-04-22 21:05 60.91995 45.89795 32318 ft 512 kts 50°
2026-04-22 21:05 60.96538 46.01141 32319 ft 512 kts 50°
2026-04-22 21:06 61.01060 46.12487 32319 ft 512 kts 50°
2026-04-22 21:06 61.05548 46.23822 32319 ft 512 kts 51°
2026-04-22 21:07 61.10018 46.35352 32317 ft 512 kts 51°
2026-04-22 21:07 61.14434 46.46834 32320 ft 512 kts 51°
2026-04-22 21:08 61.18853 46.58347 32313 ft 511 kts 51°
2026-04-22 21:08 61.23292 46.69955 32316 ft 511 kts 51°
2026-04-22 21:09 61.27689 46.81542 32315 ft 511 kts 52°
2026-04-22 21:09 61.32055 46.93124 32316 ft 511 kts 52°
2026-04-22 21:10 61.36449 47.04836 32315 ft 510 kts 52°
2026-04-22 21:10 61.40803 47.16492 32316 ft 510 kts 52°
2026-04-22 21:11 61.45158 47.28203 32315 ft 510 kts 52°
2026-04-22 21:11 61.49519 47.39962 32319 ft 510 kts 52°
2026-04-22 21:12 61.53834 47.51655 32315 ft 511 kts 53°
2026-04-22 21:12 61.58168 47.63541 32314 ft 511 kts 53°
2026-04-22 21:13 61.62454 47.75386 32320 ft 511 kts 53°
2026-04-22 21:13 61.66771 47.87369 32314 ft 512 kts 53°
2026-04-22 21:14 61.71048 47.99294 32318 ft 512 kts 53°
2026-04-22 21:14 61.75335 48.11309 32319 ft 512 kts 53°
2026-04-22 21:15 61.79602 48.23329 32319 ft 512 kts 53°
2026-04-22 21:15 61.83857 48.35382 32313 ft 511 kts 53°
2026-04-22 21:16 61.88102 48.47463 32318 ft 511 kts 53°
2026-04-22 21:16 61.92347 48.59614 32323 ft 511 kts 53°
2026-04-22 21:17 61.96548 48.71703 32312 ft 511 kts 53°
2026-04-22 21:17 62.00742 48.83835 32314 ft 510 kts 54°
2026-04-22 21:18 62.04936 48.96033 32317 ft 510 kts 54°
2026-04-22 21:18 62.09126 49.08277 32313 ft 509 kts 54°
2026-04-22 21:19 62.13294 49.20504 32310 ft 509 kts 54°
2026-04-22 21:19 62.17453 49.32708 32317 ft 509 kts 54°
2026-04-22 21:20 62.21603 49.44946 32312 ft 508 kts 54°
2026-04-22 21:20 62.25764 49.57290 32315 ft 508 kts 54°
2026-04-22 21:21 62.29884 49.69584 32319 ft 508 kts 54°
2026-04-22 21:21 62.33996 49.81922 32315 ft 509 kts 54°
2026-04-22 21:22 62.38096 49.94289 32317 ft 509 kts 54°
2026-04-22 21:22 62.42206 50.06754 32317 ft 509 kts 54°
2026-04-22 21:23 62.46285 50.19191 32313 ft 509 kts 55°
2026-04-22 21:23 62.50373 50.31720 32317 ft 508 kts 55°
2026-04-22 21:24 62.54158 50.44575 32306 ft 507 kts 64°
2026-04-22 21:24 62.56819 50.58739 32319 ft 505 kts 74°
2026-04-22 21:25 62.58728 50.73317 32318 ft 504 kts 75°
2026-04-22 21:25 62.60615 50.88022 32319 ft 504 kts 75°
2026-04-22 21:26 62.62504 51.02586 32321 ft 504 kts 75°
2026-04-22 21:26 62.64414 51.17277 32334 ft 504 kts 75°
2026-04-22 21:27 62.66307 51.31938 32328 ft 503 kts 75°
2026-04-22 21:27 62.68178 51.46584 32342 ft 503 kts 75°
2026-04-22 21:28 62.70039 51.61299 32347 ft 503 kts 75°
2026-04-22 21:28 62.71879 51.75989 32349 ft 503 kts 75°
2026-04-22 21:29 62.73697 51.90646 32357 ft 502 kts 76°
2026-04-22 21:29 62.75511 52.05411 32365 ft 501 kts 76°
2026-04-22 21:30 62.77297 52.20088 32369 ft 501 kts 76°
2026-04-22 21:30 62.79064 52.34754 32382 ft 500 kts 76°
2026-04-22 21:31 62.80823 52.49498 32381 ft 500 kts 76°
2026-04-22 21:31 62.82559 52.64203 32395 ft 499 kts 76°
2026-04-22 21:32 62.84270 52.78832 32397 ft 498 kts 76°
2026-04-22 21:32 62.85976 52.93573 32406 ft 498 kts 77°
2026-04-22 21:33 62.87657 53.08243 32407 ft 498 kts 77°
2026-04-22 21:33 62.89335 53.23043 32412 ft 498 kts 77°
2026-04-22 21:34 62.90983 53.37719 32416 ft 498 kts 77°
2026-04-22 21:34 62.92620 53.52461 32430 ft 498 kts 77°
2026-04-22 21:35 62.94250 53.67294 32426 ft 498 kts 77°
2026-04-22 21:35 62.95853 53.82041 32432 ft 498 kts 77°
2026-04-22 21:36 62.97442 53.96807 32433 ft 498 kts 77°
2026-04-22 21:36 62.99026 54.11695 32433 ft 498 kts 77°
2026-04-22 21:37 63.00584 54.26501 32433 ft 498 kts 77°
2026-04-22 21:37 63.02128 54.41333 32446 ft 498 kts 77°
2026-04-22 21:38 63.03661 54.56229 32451 ft 499 kts 78°
2026-04-22 21:38 63.05178 54.71132 32449 ft 500 kts 78°
2026-04-22 21:39 63.06691 54.86151 32457 ft 500 kts 77°
2026-04-22 21:39 63.08181 55.01096 32454 ft 499 kts 77°
2026-04-22 21:40 63.09691 55.16111 32465 ft 499 kts 77°
2026-04-22 21:40 63.11184 55.31035 32466 ft 499 kts 78°
2026-04-22 21:41 63.12656 55.45962 32465 ft 498 kts 78°
2026-04-22 21:41 63.14120 55.60984 32473 ft 498 kts 78°
2026-04-22 21:42 63.15563 55.75947 32470 ft 498 kts 78°
2026-04-22 21:42 63.16988 55.90854 32478 ft 498 kts 78°
2026-04-22 21:43 63.18411 56.05902 32478 ft 498 kts 78°
2026-04-22 21:43 63.19814 56.20937 32481 ft 498 kts 78°
2026-04-22 21:44 63.21195 56.35911 32483 ft 498 kts 78°
2026-04-22 21:44 63.22573 56.51048 32488 ft 500 kts 78°
2026-04-22 21:45 63.23934 56.66183 32490 ft 501 kts 78°
2026-04-22 21:45 63.25280 56.81344 32494 ft 501 kts 78°
2026-04-22 21:46 63.26608 56.96500 32499 ft 502 kts 78°
2026-04-22 21:46 63.27931 57.11801 32499 ft 502 kts 79°
2026-04-22 21:47 63.29228 57.27000 32500 ft 502 kts 79°
2026-04-22 21:47 63.30507 57.42196 32502 ft 501 kts 79°
2026-04-22 21:48 63.31779 57.57494 32513 ft 501 kts 79°
2026-04-22 21:48 63.33027 57.72702 32514 ft 501 kts 79°
2026-04-22 21:49 63.34257 57.87926 32509 ft 501 kts 79°
2026-04-22 21:49 63.35478 58.03211 32514 ft 500 kts 79°
2026-04-22 21:50 63.36482 58.15940 32511 ft 500 kts 79°
2026-04-22 21:50 63.37863 58.33712 32522 ft 499 kts 80°
2026-04-22 21:51 63.39029 58.48944 32524 ft 500 kts 80°
2026-04-22 21:52 63.40567 58.69399 32526 ft 501 kts 80°
2026-04-22 21:52 63.41696 58.84675 32530 ft 501 kts 81°
2026-04-22 21:53 63.42819 59.00108 32534 ft 502 kts 81°
2026-04-22 21:53 63.43918 59.15461 32532 ft 502 kts 81°
2026-04-22 21:54 63.45002 59.30830 32535 ft 501 kts 81°
2026-04-22 21:54 63.46075 59.46301 32536 ft 501 kts 81°
2026-04-22 21:55 63.47119 59.61590 32538 ft 501 kts 81°
2026-04-22 21:55 63.48163 59.77084 32543 ft 502 kts 81°
2026-04-22 21:56 63.49583 59.92329 32549 ft 502 kts 77°
2026-04-22 21:56 63.51175 60.07521 32544 ft 502 kts 77°
2026-04-22 21:57 63.52735 60.22852 32541 ft 503 kts 77°
2026-04-22 21:57 63.54248 60.38093 32545 ft 503 kts 77°
2026-04-22 21:58 63.55745 60.53357 32545 ft 503 kts 78°
2026-04-22 21:58 63.57235 60.68770 32523 ft 503 kts 78°
2026-04-22 21:59 63.58697 60.84073 32545 ft 504 kts 78°
2026-04-22 21:59 63.60158 60.99543 32541 ft 505 kts 78°
2026-04-22 22:00 63.61596 61.14951 32543 ft 505 kts 78°
2026-04-22 22:00 63.63018 61.30382 32549 ft 506 kts 78°
2026-04-22 22:01 63.64431 61.45914 32549 ft 506 kts 79°
2026-04-22 22:01 63.65824 61.61429 32546 ft 506 kts 79°
2026-04-22 22:02 63.67196 61.76895 32549 ft 505 kts 79°
2026-04-22 22:02 63.68559 61.92474 32552 ft 505 kts 79°
2026-04-22 22:03 63.69895 62.07959 32546 ft 504 kts 79°
2026-04-22 22:03 63.71222 62.23541 32548 ft 504 kts 79°
2026-04-22 22:04 63.72522 62.39008 32555 ft 503 kts 79°
2026-04-22 22:04 63.73806 62.54505 32554 ft 503 kts 80°
2026-04-22 22:05 63.75072 62.70002 32556 ft 503 kts 80°
2026-04-22 22:05 63.76328 62.85585 32554 ft 503 kts 80°
2026-04-22 22:06 63.77564 63.01156 32561 ft 503 kts 80°
2026-04-22 22:06 63.78782 63.16714 32561 ft 503 kts 81°
2026-04-22 22:07 63.79987 63.32339 32563 ft 503 kts 81°
2026-04-22 22:07 63.81172 63.47924 32545 ft 503 kts 81°
2026-04-22 22:08 63.82337 63.63500 32562 ft 505 kts 81°
2026-04-22 22:08 63.83500 63.79269 32572 ft 506 kts 81°
2026-04-22 22:09 63.84640 63.94988 32570 ft 508 kts 81°
2026-04-22 22:09 63.85774 64.10857 32568 ft 508 kts 81°
2026-04-22 22:10 63.86883 64.26640 32570 ft 509 kts 81°
2026-04-22 22:10 63.87984 64.42528 32565 ft 508 kts 82°
2026-04-22 22:11 63.89079 64.58335 32568 ft 508 kts 81°
2026-04-22 22:11 63.90177 64.74212 32569 ft 507 kts 82°
2026-04-22 22:12 63.91250 64.90013 32572 ft 507 kts 82°
2026-04-22 22:12 63.92391 65.05767 32572 ft 507 kts 77°
2026-04-22 22:13 63.94202 65.21206 32574 ft 506 kts 75°
2026-04-22 22:13 63.96053 65.36625 32574 ft 506 kts 75°
2026-04-22 22:14 63.97849 65.52173 32572 ft 507 kts 76°
2026-04-22 22:14 63.99624 65.67743 32571 ft 507 kts 76°
2026-04-22 22:15 64.01408 65.83217 32611 ft 510 kts 76°
2026-04-22 22:15 64.02309 65.91058 32853 ft 511 kts 76°
2026-04-22 22:15 64.03208 65.98928 33208 ft 509 kts 76°
2026-04-22 22:15 64.04094 66.06729 33586 ft 507 kts 76°
2026-04-22 22:16 64.04974 66.14541 33874 ft 506 kts 76°
2026-04-22 22:16 64.05839 66.22261 34134 ft 506 kts 76°
2026-04-22 22:16 64.06707 66.30051 34324 ft 506 kts 76°
2026-04-22 22:16 64.07575 66.37889 34486 ft 507 kts 76°
2026-04-22 22:17 64.08441 66.45750 34534 ft 509 kts 76°
2026-04-22 22:17 64.10153 66.61388 34567 ft 508 kts 77°
2026-04-22 22:18 64.11859 66.76995 34576 ft 506 kts 76°
2026-04-22 22:18 64.13605 66.92575 34588 ft 506 kts 76°
2026-04-22 22:19 64.15344 67.08167 34584 ft 505 kts 76°
2026-04-22 22:19 64.17064 67.23833 34591 ft 506 kts 76°
2026-04-22 22:20 64.18760 67.39499 34590 ft 506 kts 77°
2026-04-22 22:20 64.20435 67.55154 34571 ft 507 kts 77°
2026-04-22 22:21 64.22096 67.70850 34596 ft 508 kts 77°
2026-04-22 22:21 64.23760 67.86745 34593 ft 510 kts 77°
2026-04-22 22:22 64.25400 68.02603 34596 ft 511 kts 77°
2026-04-22 22:22 64.27022 68.18474 34595 ft 512 kts 77°
2026-04-22 22:23 64.28642 68.34503 34586 ft 512 kts 78°
2026-04-22 22:23 64.30239 68.50508 34584 ft 512 kts 78°
2026-04-22 22:24 64.31807 68.66404 34608 ft 511 kts 78°
2026-04-22 22:24 64.33366 68.82415 34609 ft 510 kts 78°
2026-04-22 22:25 64.34906 68.98416 34612 ft 510 kts 78°
2026-04-22 22:25 64.36417 69.14325 34614 ft 510 kts 78°
2026-04-22 22:26 64.37921 69.30355 34614 ft 509 kts 78°
2026-04-22 22:26 64.39398 69.46297 34616 ft 509 kts 79°
2026-04-22 22:27 64.40868 69.62371 34622 ft 509 kts 79°
2026-04-22 22:27 64.42316 69.78411 34620 ft 509 kts 79°
2026-04-22 22:28 64.43747 69.94440 34626 ft 509 kts 79°
2026-04-22 22:28 64.45149 70.10522 34627 ft 509 kts 79°
2026-04-22 22:29 64.46524 70.26648 34630 ft 510 kts 80°
2026-04-22 22:29 64.47883 70.42793 34630 ft 510 kts 80°
2026-04-22 22:30 64.49217 70.58826 34638 ft 509 kts 80°
2026-04-22 22:30 64.50544 70.74993 34642 ft 509 kts 80°
2026-04-22 22:31 64.51851 70.91141 34642 ft 508 kts 80°
2026-04-22 22:31 64.53130 71.07195 34645 ft 508 kts 81°
2026-04-22 22:32 64.54398 71.23336 34640 ft 508 kts 81°
2026-04-22 22:32 64.55653 71.39549 34656 ft 507 kts 81°
2026-04-22 22:33 64.56880 71.55649 34654 ft 506 kts 81°
2026-04-22 22:33 64.58089 71.71759 34658 ft 506 kts 81°
2026-04-22 22:34 64.59286 71.87953 34660 ft 506 kts 81°
2026-04-22 22:34 64.60459 72.04072 34658 ft 506 kts 81°
2026-04-22 22:35 64.61622 72.20264 34666 ft 505 kts 82°
2026-04-22 22:35 64.62776 72.36351 34669 ft 505 kts 82°
2026-04-22 22:36 64.63933 72.52512 34669 ft 505 kts 82°
2026-04-22 22:36 64.65068 72.68614 34673 ft 505 kts 82°
2026-04-22 22:37 64.66186 72.84775 34682 ft 505 kts 82°
2026-04-22 22:37 64.67287 73.00975 34685 ft 505 kts 82°
2026-04-22 22:38 64.68364 73.17118 34686 ft 505 kts 82°
2026-04-22 22:38 64.69425 73.33277 34685 ft 505 kts 82°
2026-04-22 22:39 64.70475 73.49550 34687 ft 505 kts 83°
2026-04-22 22:39 64.71504 73.65782 34675 ft 505 kts 83°
2026-04-22 22:40 64.72515 73.82049 34692 ft 508 kts 83°
2026-04-22 22:40 64.73352 73.95724 34714 ft 512 kts 83°
2026-04-22 22:41 64.74348 74.12304 34714 ft 515 kts 83°
2026-04-22 22:41 64.75491 74.31719 34720 ft 518 kts 83°
2026-04-22 22:42 64.76301 74.45764 34711 ft 519 kts 83°
2026-04-22 22:42 64.77245 74.62430 34722 ft 517 kts 84°
2026-04-22 22:43 64.78172 74.79145 34723 ft 515 kts 84°
2026-04-22 22:43 64.79076 74.95785 34728 ft 513 kts 84°
2026-04-22 22:44 64.79953 75.12296 34727 ft 511 kts 84°
2026-04-22 22:44 64.80817 75.28921 34729 ft 510 kts 84°
2026-04-22 22:45 64.81654 75.45391 34742 ft 510 kts 84°
2026-04-22 22:45 64.82474 75.61879 34755 ft 510 kts 84°
2026-04-22 22:46 64.83282 75.78516 34754 ft 511 kts 85°
2026-04-22 22:46 64.84068 75.95101 34766 ft 512 kts 85°
2026-04-22 22:47 64.84838 76.11728 34766 ft 513 kts 85°
2026-04-22 22:47 64.85593 76.28468 34772 ft 513 kts 85°
2026-04-22 22:48 64.86324 76.45063 34769 ft 513 kts 85°
2026-04-22 22:48 64.87042 76.61813 34784 ft 513 kts 85°
2026-04-22 22:49 64.87737 76.78478 34785 ft 512 kts 85°
2026-04-22 22:49 64.88416 76.95130 34788 ft 512 kts 86°
2026-04-22 22:50 64.89097 77.11857 34795 ft 512 kts 85°
2026-04-22 22:50 64.89781 77.28487 34805 ft 512 kts 86°
2026-04-22 22:51 64.90446 77.45158 34805 ft 512 kts 86°
2026-04-22 22:51 64.91092 77.61942 34820 ft 512 kts 86°
2026-04-22 22:52 64.91717 77.78593 34814 ft 512 kts 86°
2026-04-22 22:52 64.92427 77.95259 34832 ft 512 kts 85°
2026-04-22 22:53 64.93205 78.12032 34831 ft 513 kts 85°
2026-04-22 22:53 64.93953 78.28666 34845 ft 513 kts 85°
2026-04-22 22:54 64.94668 78.45377 34839 ft 513 kts 85°
2026-04-22 22:54 64.95362 78.62206 34856 ft 512 kts 85°
2026-04-22 22:55 64.96029 78.78836 34853 ft 512 kts 85°
2026-04-22 22:55 64.97003 79.04002 34869 ft 511 kts 86°
2026-04-22 22:56 64.97626 79.20704 34878 ft 511 kts 86°
2026-04-22 22:56 64.98229 79.37368 34879 ft 511 kts 86°
2026-04-22 22:57 64.98814 79.54058 34892 ft 510 kts 86°
2026-04-22 22:57 64.99383 79.70829 34893 ft 510 kts 86°
2026-04-22 22:58 64.99927 79.87444 34901 ft 509 kts 86°
2026-04-22 22:58 65.00458 80.04207 34901 ft 509 kts 87°
2026-04-22 22:59 65.00965 80.20816 34917 ft 509 kts 87°
2026-04-22 22:59 65.01456 80.37520 34914 ft 509 kts 87°
2026-04-22 23:00 65.01928 80.54229 34930 ft 509 kts 87°
2026-04-22 23:00 65.02381 80.70898 34932 ft 509 kts 88°
2026-04-22 23:01 65.02817 80.87640 34944 ft 509 kts 88°
2026-04-22 23:01 65.03234 81.04385 34942 ft 509 kts 88°
2026-04-22 23:02 65.03630 81.21038 34954 ft 509 kts 88°
2026-04-22 23:02 65.04010 81.37805 34954 ft 509 kts 88°
2026-04-22 23:03 65.04370 81.54541 34953 ft 509 kts 88°
2026-04-22 23:03 65.04711 81.71221 34953 ft 509 kts 88°
2026-04-22 23:04 65.05035 81.88047 34960 ft 509 kts 88°
2026-04-22 23:04 65.05338 82.04733 34966 ft 509 kts 89°
2026-04-22 23:05 65.05623 82.21422 34978 ft 509 kts 89°
2026-04-22 23:05 65.05891 82.38267 34980 ft 509 kts 89°
2026-04-22 23:06 65.06138 82.54959 34989 ft 509 kts 89°
2026-04-22 23:06 65.06366 82.71677 34984 ft 509 kts 89°
2026-04-22 23:07 65.06578 82.88477 35003 ft 509 kts 89°
2026-04-22 23:07 65.06770 83.05210 35003 ft 509 kts 89°
2026-04-22 23:08 65.06943 83.21940 35019 ft 509 kts 89°
2026-04-22 23:08 65.07098 83.38809 35016 ft 509 kts 89°
2026-04-22 23:09 65.07233 83.55483 35029 ft 509 kts 89°
2026-04-22 23:09 65.07354 83.72359 35033 ft 509 kts 89°
2026-04-22 23:10 65.07450 83.89160 35044 ft 509 kts 90°
2026-04-22 23:10 65.07518 84.05867 35041 ft 509 kts 90°
2026-04-22 23:11 65.07567 84.22719 35059 ft 509 kts 90°
2026-04-22 23:11 65.07600 84.39460 35059 ft 509 kts 89°
2026-04-22 23:12 65.07616 84.56210 35070 ft 509 kts 90°
2026-04-22 23:12 65.07612 84.73037 35070 ft 509 kts 90°
2026-04-22 23:13 65.07590 84.89744 35082 ft 508 kts 90°
2026-04-22 23:13 65.07548 85.06540 35095 ft 508 kts 90°
2026-04-22 23:14 65.07488 85.23237 35095 ft 508 kts 90°
2026-04-22 23:14 65.07410 85.40051 35103 ft 508 kts 90°
2026-04-22 23:15 65.07313 85.56729 35104 ft 508 kts 90°
2026-04-22 23:15 65.07197 85.73486 35115 ft 508 kts 90°
2026-04-22 23:16 65.07062 85.90203 35126 ft 508 kts 90°
2026-04-22 23:16 65.06908 86.06981 35124 ft 508 kts 90°
2026-04-22 23:17 65.06737 86.23646 35118 ft 508 kts 90°
2026-04-22 23:17 65.06546 86.40414 35128 ft 507 kts 90°
2026-04-22 23:18 65.06338 86.57073 35125 ft 507 kts 91°
2026-04-22 23:18 65.06110 86.73771 35160 ft 507 kts 90°
2026-04-22 23:19 65.05865 86.90403 35137 ft 507 kts 90°
2026-04-22 23:19 65.05599 87.07174 35147 ft 507 kts 91°
2026-04-22 23:20 65.05317 87.23828 35147 ft 507 kts 91°
2026-04-22 23:20 65.05015 87.40527 35153 ft 507 kts 91°
2026-04-22 23:21 65.04693 87.57281 35171 ft 508 kts 91°
2026-04-22 23:21 65.04355 87.73929 35166 ft 508 kts 91°
2026-04-22 23:22 65.04001 87.90636 35160 ft 508 kts 91°
2026-04-22 23:22 65.03611 88.07376 35178 ft 508 kts 91°
2026-04-22 23:23 65.03192 88.24015 35175 ft 509 kts 91°
2026-04-22 23:23 65.02761 88.40809 35209 ft 509 kts 91°
2026-04-22 23:24 65.02363 88.57481 35189 ft 508 kts 91°
2026-04-22 23:24 65.01962 88.74164 35209 ft 508 kts 91°
2026-04-22 23:25 65.01541 88.90788 35209 ft 508 kts 91°
2026-04-22 23:25 65.01094 89.07500 35218 ft 508 kts 91°
2026-04-22 23:26 65.00628 89.24139 35220 ft 508 kts 91°
2026-04-22 23:26 65.00143 89.40784 35242 ft 508 kts 91°
2026-04-22 23:27 64.99726 89.54650 35243 ft 508 kts 92°
2026-04-22 23:27 64.99210 89.71224 35242 ft 508 kts 92°
2026-04-22 23:28 64.98671 89.87930 35231 ft 508 kts 92°
2026-04-22 23:28 64.98115 90.04577 35267 ft 508 kts 92°
2026-04-22 23:29 64.97542 90.21164 35256 ft 509 kts 92°
2026-04-22 23:29 64.96947 90.37876 35272 ft 509 kts 92°
2026-04-22 23:30 64.96335 90.54508 35270 ft 510 kts 92°
2026-04-22 23:30 64.95703 90.71171 35272 ft 509 kts 92°
2026-04-22 23:31 64.95053 90.87815 35294 ft 509 kts 92°
2026-04-22 23:31 64.94388 91.04368 35297 ft 509 kts 92°
2026-04-22 23:32 64.93700 91.21017 35292 ft 509 kts 92°
2026-04-22 23:32 64.92996 91.37608 35295 ft 508 kts 93°
2026-04-22 23:33 64.92274 91.54187 35297 ft 508 kts 93°
2026-04-22 23:33 64.91532 91.70778 35317 ft 508 kts 93°
2026-04-22 23:34 64.90778 91.87233 35312 ft 508 kts 93°
2026-04-22 23:34 64.89999 92.03803 35302 ft 508 kts 93°
2026-04-22 23:35 64.89209 92.20236 35302 ft 507 kts 94°
2026-04-22 23:35 64.88396 92.36741 35323 ft 508 kts 94°
2026-04-22 23:36 64.87563 92.53261 35335 ft 508 kts 94°
2026-04-22 23:36 64.86714 92.69749 35330 ft 507 kts 94°
2026-04-22 23:37 64.85847 92.86220 35331 ft 507 kts 94°
2026-04-22 23:37 64.84962 93.02660 35326 ft 507 kts 94°
2026-04-22 23:38 64.84066 93.18989 35335 ft 507 kts 94°
2026-04-22 23:38 64.83144 93.35432 35342 ft 507 kts 95°
2026-04-22 23:39 64.82204 93.51864 35332 ft 506 kts 95°
2026-04-22 23:39 64.81254 93.68137 35335 ft 505 kts 95°
2026-04-22 23:40 64.80283 93.84473 35333 ft 504 kts 95°
2026-04-22 23:40 64.79300 94.00733 35339 ft 503 kts 95°
2026-04-22 23:41 64.78305 94.16993 35343 ft 503 kts 95°
2026-04-22 23:41 64.77383 94.33145 35350 ft 502 kts 95°
2026-04-22 23:42 64.76469 94.49383 35346 ft 502 kts 95°
2026-04-22 23:42 64.75531 94.65586 35351 ft 501 kts 95°
2026-04-22 23:43 64.74569 94.81761 35349 ft 501 kts 95°
2026-04-22 23:43 64.73583 94.97945 35355 ft 501 kts 96°
2026-04-22 23:44 64.72583 95.14074 35350 ft 500 kts 96°
2026-04-22 23:44 64.71572 95.30094 35357 ft 499 kts 96°
2026-04-22 23:45 64.70541 95.46144 35358 ft 499 kts 96°
2026-04-22 23:45 64.69494 95.62176 35353 ft 498 kts 96°
2026-04-22 23:46 64.68430 95.78179 35364 ft 498 kts 97°
2026-04-22 23:46 64.67348 95.94183 35357 ft 498 kts 97°
2026-04-22 23:47 64.66251 96.10143 35352 ft 498 kts 97°
2026-04-22 23:47 64.65138 96.26069 35353 ft 497 kts 97°
2026-04-22 23:48 64.64006 96.42005 35346 ft 497 kts 97°
2026-04-22 23:48 64.62865 96.57822 35359 ft 497 kts 98°
2026-04-22 23:49 64.61703 96.73688 35347 ft 496 kts 98°
2026-04-22 23:49 64.60524 96.89519 35348 ft 496 kts 98°
2026-04-22 23:50 64.59328 97.05358 35344 ft 496 kts 98°
2026-04-22 23:50 64.58117 97.21145 35337 ft 496 kts 98°
2026-04-22 23:51 64.56888 97.36942 35343 ft 496 kts 98°
2026-04-22 23:51 64.55642 97.52715 35329 ft 496 kts 99°
2026-04-22 23:52 64.54379 97.68491 35334 ft 496 kts 99°
2026-04-22 23:52 64.53098 97.84251 35338 ft 496 kts 99°
2026-04-22 23:53 64.51801 98.00007 35333 ft 497 kts 99°
2026-04-22 23:53 64.50493 98.15667 35323 ft 496 kts 99°
2026-04-22 23:54 64.49163 98.31368 35317 ft 495 kts 99°
2026-04-22 23:54 64.47817 98.47044 35309 ft 495 kts 100°
2026-04-22 23:55 64.46465 98.62589 35313 ft 494 kts 100°
2026-04-22 23:55 64.45090 98.78203 35296 ft 494 kts 100°
2026-04-22 23:56 64.43698 98.93797 35306 ft 494 kts 100°
2026-04-22 23:56 64.42299 99.09272 35285 ft 493 kts 101°
2026-04-22 23:57 64.40876 99.24817 35289 ft 493 kts 101°
2026-04-22 23:57 64.39438 99.40321 35279 ft 493 kts 101°
2026-04-22 23:58 64.37991 99.55744 35273 ft 493 kts 101°
2026-04-22 23:58 64.36520 99.71234 35270 ft 493 kts 101°
2026-04-22 23:59 64.35031 99.86709 35258 ft 492 kts 102°
2026-04-22 23:59 64.33534 100.02106 35253 ft 491 kts 101°
2026-04-23 00:00 64.31272 100.25026 35243 ft 491 kts 101°
2026-04-23 00:01 64.29723 100.40409 35252 ft 492 kts 103°
2026-04-23 00:01 64.27445 100.55258 35242 ft 492 kts 111°
2026-04-23 00:02 64.24778 100.69756 35225 ft 492 kts 112°
2026-04-23 00:02 64.22126 100.84174 35212 ft 491 kts 111°
2026-04-23 00:03 64.19475 100.98674 35211 ft 490 kts 112°
2026-04-23 00:03 64.16850 101.13005 35205 ft 489 kts 112°
2026-04-23 00:04 64.14195 101.27393 35195 ft 487 kts 112°
2026-04-23 00:04 64.11548 101.41623 35183 ft 485 kts 112°
2026-04-23 00:05 64.08891 101.55805 35185 ft 484 kts 112°
2026-04-23 00:05 64.06234 101.69887 35187 ft 483 kts 112°
2026-04-23 00:06 64.03570 101.83909 35176 ft 483 kts 113°
2026-04-23 00:06 64.00883 101.97949 35176 ft 483 kts 113°
2026-04-23 00:07 63.98192 102.11913 35157 ft 482 kts 114°
2026-04-23 00:07 63.95475 102.25920 35159 ft 481 kts 114°
2026-04-23 00:08 63.92777 102.39728 35153 ft 481 kts 114°
2026-04-23 00:08 63.90040 102.53644 35154 ft 481 kts 114°
2026-04-23 00:09 63.87292 102.67523 35151 ft 481 kts 114°
2026-04-23 00:09 63.84549 102.81280 35141 ft 481 kts 114°
2026-04-23 00:10 63.81778 102.95087 35146 ft 481 kts 114°
2026-04-23 00:10 63.78985 103.08912 35145 ft 481 kts 115°
2026-04-23 00:11 63.76197 103.22617 35151 ft 481 kts 115°
2026-04-23 00:11 63.73383 103.36359 35151 ft 481 kts 115°
2026-04-23 00:12 63.70570 103.50006 35157 ft 481 kts 115°
2026-04-23 00:12 63.67732 103.63687 35159 ft 481 kts 115°
2026-04-23 00:13 63.64900 103.77250 35160 ft 481 kts 115°
2026-04-23 00:13 63.62039 103.90876 35161 ft 481 kts 115°
2026-04-23 00:14 63.59166 104.04462 35162 ft 481 kts 116°
2026-04-23 00:14 63.56294 104.17930 35162 ft 480 kts 116°
2026-04-23 00:15 63.53396 104.31443 35171 ft 480 kts 116°
2026-04-23 00:15 63.50492 104.44907 35172 ft 479 kts 116°
2026-04-23 00:16 63.47593 104.58270 35179 ft 479 kts 116°
2026-04-23 00:16 63.44668 104.71664 35180 ft 479 kts 116°
2026-04-23 00:17 63.41727 104.85049 35181 ft 479 kts 116°
2026-04-23 00:17 63.38798 104.98297 35183 ft 479 kts 116°
2026-04-23 00:18 63.36334 105.09377 35183 ft 479 kts 116°
2026-04-23 00:18 63.33354 105.22699 35183 ft 479 kts 116°
2026-04-23 00:19 63.30381 105.35911 35184 ft 479 kts 117°
2026-04-23 00:19 63.27377 105.49174 35186 ft 479 kts 117°
2026-04-23 00:20 63.24386 105.62305 35187 ft 478 kts 117°
2026-04-23 00:20 63.21366 105.75476 35198 ft 477 kts 117°
2026-04-23 00:21 63.17852 105.90703 35194 ft 477 kts 117°
2026-04-23 00:21 63.15331 106.01564 35202 ft 477 kts 117°
2026-04-23 00:22 63.12286 106.14606 35211 ft 476 kts 117°
2026-04-23 00:22 63.09232 106.27610 35203 ft 476 kts 118°
2026-04-23 00:23 63.06165 106.40593 35204 ft 476 kts 118°
2026-04-23 00:23 63.03111 106.53447 35209 ft 476 kts 118°
2026-04-23 00:24 63.00020 106.66376 35215 ft 476 kts 118°
2026-04-23 00:24 62.96934 106.79212 35215 ft 476 kts 118°
2026-04-23 00:25 62.93827 106.92069 35217 ft 476 kts 118°
2026-04-23 00:25 62.90716 107.04905 35214 ft 475 kts 118°
2026-04-23 00:26 62.87664 107.17779 35218 ft 475 kts 118°
2026-04-23 00:26 62.84625 107.30621 35224 ft 474 kts 118°
2026-04-23 00:27 62.81587 107.43358 35219 ft 474 kts 118°
2026-04-23 00:27 62.78520 107.56106 35230 ft 473 kts 118°
2026-04-23 00:28 62.75452 107.68777 35225 ft 473 kts 119°
2026-04-23 00:28 62.72351 107.81505 35232 ft 472 kts 119°
2026-04-23 00:29 62.69269 107.94086 35229 ft 472 kts 119°
2026-04-23 00:29 62.66172 108.06656 35226 ft 472 kts 119°
2026-04-23 00:30 62.63048 108.19265 35229 ft 471 kts 120°
2026-04-23 00:30 62.59941 108.31737 35221 ft 470 kts 120°
2026-04-23 00:31 62.56809 108.44231 35226 ft 470 kts 120°
2026-04-23 00:31 62.53698 108.56577 35224 ft 470 kts 120°
2026-04-23 00:32 62.50549 108.69006 35215 ft 470 kts 120°
2026-04-23 00:32 62.47399 108.81369 35220 ft 469 kts 120°
2026-04-23 00:33 62.44251 108.93648 35224 ft 469 kts 120°
2026-04-23 00:33 62.41066 109.06005 35217 ft 469 kts 120°
2026-04-23 00:34 62.37886 109.18279 35216 ft 469 kts 120°
2026-04-23 00:34 62.34680 109.30583 35214 ft 470 kts 121°
2026-04-23 00:35 62.31477 109.42807 35204 ft 469 kts 121°
2026-04-23 00:35 62.28275 109.54965 35209 ft 468 kts 121°
2026-04-23 00:36 62.25054 109.67124 35209 ft 467 kts 121°
2026-04-23 00:36 62.21837 109.79203 35207 ft 467 kts 121°
2026-04-23 00:37 62.18618 109.91224 35199 ft 466 kts 121°
2026-04-23 00:37 62.15367 110.03303 35194 ft 466 kts 122°
2026-04-23 00:38 62.12137 110.15238 35188 ft 465 kts 122°
2026-04-23 00:38 62.08880 110.27209 35192 ft 464 kts 122°
2026-04-23 00:39 62.05637 110.39065 35185 ft 464 kts 122°
2026-04-23 00:39 62.02365 110.50964 35195 ft 464 kts 122°
2026-04-23 00:40 61.99112 110.62735 35189 ft 463 kts 122°
2026-04-23 00:40 61.95833 110.74538 35191 ft 462 kts 123°
2026-04-23 00:41 61.92551 110.86286 35187 ft 461 kts 123°
2026-04-23 00:41 61.89261 110.98006 35189 ft 461 kts 123°
2026-04-23 00:42 61.85975 111.09652 35181 ft 461 kts 123°
2026-04-23 00:42 61.82686 111.21246 35186 ft 460 kts 123°
2026-04-23 00:43 61.79377 111.32858 35178 ft 461 kts 123°
2026-04-23 00:43 61.76071 111.44405 35177 ft 461 kts 123°
2026-04-23 00:44 61.72722 111.56030 35188 ft 462 kts 123°
2026-04-23 00:44 61.69382 111.67554 35178 ft 463 kts 123°
2026-04-23 00:45 61.66023 111.79095 35163 ft 463 kts 123°
2026-04-23 00:45 61.62642 111.90655 35170 ft 463 kts 123°
2026-04-23 00:46 61.59260 112.02164 35170 ft 462 kts 123°
2026-04-23 00:46 61.55887 112.13586 35165 ft 461 kts 124°
2026-04-23 00:47 61.52491 112.25029 35157 ft 461 kts 124°
2026-04-23 00:47 61.49116 112.36343 35157 ft 460 kts 124°
2026-04-23 00:48 61.45719 112.47675 35149 ft 458 kts 124°
2026-04-23 00:48 61.42328 112.58935 35136 ft 457 kts 124°
2026-04-23 00:49 61.38936 112.70137 35142 ft 455 kts 124°
2026-04-23 00:49 61.35539 112.81304 35133 ft 455 kts 124°
2026-04-23 00:50 61.32134 112.92441 35132 ft 455 kts 124°
2026-04-23 00:50 61.28748 113.03467 35119 ft 454 kts 125°
2026-04-23 00:51 61.25344 113.14495 35138 ft 452 kts 125°
2026-04-23 00:51 61.21938 113.25477 35108 ft 452 kts 125°
2026-04-23 00:52 61.18544 113.36369 35104 ft 451 kts 125°
2026-04-23 00:52 61.15126 113.47285 35090 ft 451 kts 126°
2026-04-23 00:53 61.11704 113.58163 35098 ft 450 kts 126°
2026-04-23 00:53 61.08284 113.68988 35088 ft 448 kts 126°
2026-04-23 00:54 61.04889 113.79680 35090 ft 446 kts 126°
2026-04-23 00:54 61.01489 113.90338 35087 ft 446 kts 126°
2026-04-23 00:55 60.98066 114.01017 35104 ft 447 kts 126°
2026-04-23 00:55 60.94597 114.11788 35079 ft 452 kts 126°
2026-04-23 00:56 60.91148 114.22456 35085 ft 449 kts 126°
2026-04-23 00:56 60.87688 114.33104 35075 ft 446 kts 126°
2026-04-23 00:57 60.84230 114.43699 35080 ft 445 kts 126°
2026-04-23 00:57 60.80801 114.54157 35075 ft 444 kts 126°
2026-04-23 00:58 60.77348 114.64642 35081 ft 443 kts 126°
2026-04-23 00:58 60.73895 114.75089 35071 ft 442 kts 127°
2026-04-23 00:59 60.70476 114.85483 35084 ft 443 kts 125°
2026-04-23 00:59 60.67256 114.96204 35083 ft 443 kts 124°
2026-04-23 01:00 60.64077 115.06965 35086 ft 443 kts 124°
2026-04-23 01:00 60.60860 115.17680 35083 ft 443 kts 124°
2026-04-23 01:01 60.57644 115.28267 35080 ft 441 kts 125°
2026-04-23 01:01 60.54402 115.38876 35081 ft 440 kts 125°
2026-04-23 01:02 60.51160 115.49435 35084 ft 440 kts 125°
2026-04-23 01:02 60.47934 115.59899 35086 ft 439 kts 125°
2026-04-23 01:03 60.44684 115.70394 35082 ft 440 kts 125°
2026-04-23 01:03 60.41424 115.80874 35085 ft 438 kts 125°
2026-04-23 01:04 60.38164 115.91318 35078 ft 438 kts 126°
2026-04-23 01:04 60.33283 116.06811 35077 ft 437 kts 126°
2026-04-23 01:05 60.29999 116.17128 35076 ft 436 kts 126°
2026-04-23 01:05 60.27268 116.25682 35078 ft 436 kts 126°
2026-04-23 01:06 60.23971 116.35976 35060 ft 435 kts 126°
2026-04-23 01:06 60.20708 116.46123 35065 ft 434 kts 126°
2026-04-23 01:07 60.17416 116.56317 35068 ft 433 kts 126°
2026-04-23 01:07 60.13596 116.68083 35065 ft 432 kts 126°
2026-04-23 01:08 60.10856 116.76490 35067 ft 432 kts 127°
2026-04-23 01:08 60.07540 116.86619 35072 ft 437 kts 126°
2026-04-23 01:09 60.04177 116.96849 35041 ft 441 kts 126°
2026-04-23 01:09 60.00815 117.07035 35039 ft 442 kts 126°
2026-04-23 01:10 59.97425 117.17266 35061 ft 441 kts 126°
2026-04-23 01:10 59.94029 117.27464 35061 ft 440 kts 126°
2026-04-23 01:11 59.90629 117.37638 35059 ft 440 kts 127°
2026-04-23 01:11 59.87244 117.47675 35032 ft 437 kts 127°
2026-04-23 01:12 59.83830 117.57651 35046 ft 434 kts 127°
2026-04-23 01:12 59.80428 117.67548 35041 ft 432 kts 127°
2026-04-23 01:13 59.77050 117.77342 35041 ft 431 kts 127°
2026-04-23 01:13 59.73652 117.87166 35043 ft 432 kts 127°
2026-04-23 01:14 59.70268 117.96910 35042 ft 431 kts 128°
2026-04-23 01:14 59.66851 118.06708 35037 ft 431 kts 128°
2026-04-23 01:15 59.63436 118.16456 35041 ft 431 kts 128°
2026-04-23 01:15 59.60016 118.26181 35049 ft 431 kts 128°
2026-04-23 01:16 59.56582 118.35905 35041 ft 432 kts 128°
2026-04-23 01:16 59.53165 118.45545 35012 ft 431 kts 128°
2026-04-23 01:17 59.49725 118.55207 35032 ft 429 kts 128°
2026-04-23 01:17 59.46297 118.64796 35031 ft 427 kts 128°
2026-04-23 01:18 59.42875 118.74326 35035 ft 426 kts 128°
2026-04-23 01:18 59.39458 118.83807 35032 ft 425 kts 129°
2026-04-23 01:19 59.36052 118.93219 35035 ft 425 kts 129°
2026-04-23 01:19 59.32629 119.02642 35027 ft 424 kts 129°
2026-04-23 01:20 59.29204 119.12031 35024 ft 423 kts 129°
2026-04-23 01:20 59.25773 119.21402 35033 ft 423 kts 129°
2026-04-23 01:21 59.22364 119.30675 35037 ft 423 kts 129°
2026-04-23 01:21 59.18915 119.40018 35033 ft 424 kts 129°
2026-04-23 01:22 59.15455 119.49361 35025 ft 423 kts 129°
2026-04-23 01:22 59.12003 119.58640 35048 ft 423 kts 129°
2026-04-23 01:23 59.08539 119.67896 35027 ft 427 kts 129°
2026-04-23 01:23 59.05013 119.77256 35020 ft 429 kts 129°
2026-04-23 01:24 59.01477 119.86617 35015 ft 429 kts 129°
2026-04-23 01:24 58.97964 119.95889 34990 ft 428 kts 130°
2026-04-23 01:25 58.94442 120.05148 35009 ft 425 kts 130°
2026-04-23 01:25 58.90931 120.14339 35015 ft 423 kts 130°
2026-04-23 01:26 58.87443 120.23436 35022 ft 422 kts 130°
2026-04-23 01:26 58.83935 120.32548 35002 ft 422 kts 130°
2026-04-23 01:27 58.80423 120.41638 35025 ft 422 kts 130°
2026-04-23 01:27 58.76929 120.50644 35011 ft 421 kts 130°
2026-04-23 01:28 58.73400 120.59709 35019 ft 422 kts 130°
2026-04-23 01:28 58.69863 120.68765 35016 ft 424 kts 130°
2026-04-23 01:29 58.66325 120.77780 35013 ft 424 kts 131°
2026-04-23 01:29 58.62420 120.86202 35024 ft 421 kts 138°
2026-04-23 01:30 58.58269 120.94169 35008 ft 421 kts 137°
2026-04-23 01:30 58.54136 121.02169 35014 ft 422 kts 137°
2026-04-23 01:31 58.50032 121.10099 35023 ft 423 kts 137°
2026-04-23 01:31 58.45876 121.18099 35026 ft 424 kts 137°
2026-04-23 01:32 58.41713 121.26073 35025 ft 424 kts 137°
2026-04-23 01:32 58.37534 121.34041 34994 ft 424 kts 137°
2026-04-23 01:33 58.33353 121.41990 35021 ft 425 kts 137°
2026-04-23 01:33 58.29188 121.49886 35021 ft 426 kts 137°
2026-04-23 01:34 58.24989 121.57817 35026 ft 426 kts 137°
2026-04-23 01:34 58.20770 121.65761 35019 ft 427 kts 137°
2026-04-23 01:35 58.16547 121.73683 35024 ft 427 kts 137°
2026-04-23 01:35 58.12325 121.81574 35023 ft 426 kts 138°
2026-04-23 01:36 58.08125 121.89397 35026 ft 427 kts 138°
2026-04-23 01:36 58.03885 121.97268 35025 ft 426 kts 138°
2026-04-23 01:37 57.99638 122.05124 35018 ft 426 kts 138°
2026-04-23 01:37 57.95425 122.12888 35025 ft 426 kts 138°
2026-04-23 01:38 57.91180 122.20685 35020 ft 426 kts 138°
2026-04-23 01:38 57.86924 122.28474 35036 ft 428 kts 138°
2026-04-23 01:39 57.82640 122.36287 35030 ft 429 kts 138°
2026-04-23 01:39 57.78369 122.44051 35031 ft 431 kts 138°
2026-04-23 01:40 57.74052 122.51870 35036 ft 431 kts 138°
2026-04-23 01:40 57.69736 122.59663 35022 ft 431 kts 138°
2026-04-23 01:41 57.65404 122.67454 35032 ft 432 kts 138°
2026-04-23 01:41 57.61083 122.75202 35041 ft 433 kts 138°
2026-04-23 01:42 57.56729 122.82977 35040 ft 432 kts 139°
2026-04-23 01:42 57.52389 122.90702 35039 ft 431 kts 139°
2026-04-23 01:43 57.48080 122.98345 35027 ft 430 kts 138°
2026-04-23 01:43 57.43743 123.06013 35049 ft 431 kts 138°
2026-04-23 01:44 57.39399 123.13667 35061 ft 432 kts 138°
2026-04-23 01:44 57.35013 123.21365 35056 ft 433 kts 138°
2026-04-23 01:45 57.30645 123.29009 35053 ft 434 kts 138°
2026-04-23 01:45 57.26231 123.36707 35034 ft 435 kts 138°
2026-04-23 01:46 57.21839 123.44341 35048 ft 436 kts 138°
2026-04-23 01:46 57.17396 123.52040 35054 ft 438 kts 138°
2026-04-23 01:47 57.12968 123.59676 35066 ft 439 kts 138°
2026-04-23 01:47 57.08484 123.67382 35060 ft 439 kts 138°
2026-04-23 01:48 57.04055 123.74963 35040 ft 439 kts 138°
2026-04-23 01:48 56.99544 123.82639 35054 ft 440 kts 138°
2026-04-23 01:49 56.95065 123.90238 35087 ft 442 kts 139°
2026-04-23 01:49 56.90549 123.97883 35078 ft 441 kts 139°
2026-04-23 01:50 56.86032 124.05496 35176 ft 442 kts 139°
2026-04-23 01:50 56.83796 124.09258 35458 ft 441 kts 139°
2026-04-23 01:50 56.81526 124.13068 35733 ft 441 kts 139°
2026-04-23 01:51 56.79254 124.16876 35847 ft 445 kts 139°
2026-04-23 01:51 56.76991 124.20663 36089 ft 445 kts 138°
2026-04-23 01:51 56.74702 124.24487 36352 ft 445 kts 138°
2026-04-23 01:51 56.72409 124.28312 36607 ft 445 kts 138°
2026-04-23 01:52 56.70111 124.32137 36823 ft 446 kts 138°
2026-04-23 01:52 56.67839 124.35913 36985 ft 448 kts 138°
2026-04-23 01:52 56.63210 124.43587 37067 ft 450 kts 138°
2026-04-23 01:53 56.58599 124.51205 37065 ft 448 kts 138°
2026-04-23 01:53 56.53976 124.58815 37081 ft 447 kts 138°
2026-04-23 01:54 56.49373 124.66367 37072 ft 448 kts 138°
2026-04-23 01:54 56.44768 124.73898 37095 ft 449 kts 139°
2026-04-23 01:55 56.40102 124.81506 37102 ft 450 kts 139°
2026-04-23 01:55 56.35456 124.89054 37090 ft 452 kts 139°
2026-04-23 01:56 56.30770 124.96655 37090 ft 454 kts 139°
2026-04-23 01:56 56.26858 125.02983 37114 ft 455 kts 139°
2026-04-23 01:57 56.22155 125.10570 37100 ft 452 kts 139°
2026-04-23 01:57 56.17486 125.18076 37096 ft 449 kts 139°
2026-04-23 01:58 56.12829 125.25536 37094 ft 449 kts 139°
2026-04-23 01:58 56.08161 125.32993 37106 ft 451 kts 139°
2026-04-23 01:59 56.03452 125.40477 37105 ft 454 kts 139°
2026-04-23 01:59 55.98743 125.47927 37099 ft 456 kts 139°
2026-04-23 02:00 55.93973 125.55450 37103 ft 458 kts 139°
2026-04-23 02:00 55.89186 125.62979 37102 ft 459 kts 139°
2026-04-23 02:01 55.84378 125.70515 37101 ft 459 kts 139°
2026-04-23 02:01 55.79601 125.77978 37098 ft 458 kts 139°
2026-04-23 02:02 55.74806 125.85443 37102 ft 457 kts 139°
2026-04-23 02:02 55.70064 125.92802 37080 ft 456 kts 139°
2026-04-23 02:03 55.65262 126.00227 37095 ft 456 kts 140°
2026-04-23 02:03 55.60475 126.07606 37105 ft 457 kts 140°
2026-04-23 02:04 55.55690 126.14955 37112 ft 456 kts 140°
2026-04-23 02:04 55.50913 126.22268 37100 ft 455 kts 140°
2026-04-23 02:05 55.46122 126.29580 37088 ft 454 kts 140°
2026-04-23 02:05 55.41343 126.36849 37102 ft 455 kts 140°
2026-04-23 02:06 55.36511 126.44174 37108 ft 457 kts 140°
2026-04-23 02:06 55.31683 126.51470 37109 ft 459 kts 140°
2026-04-23 02:07 55.26837 126.58758 37107 ft 461 kts 140°
2026-04-23 02:07 55.21943 126.66089 37106 ft 463 kts 140°
2026-04-23 02:08 55.17046 126.73405 37108 ft 464 kts 140°
2026-04-23 02:08 55.12144 126.80707 37107 ft 465 kts 140°
2026-04-23 02:09 55.07201 126.88046 37099 ft 465 kts 140°
2026-04-23 02:09 55.02274 126.95337 37098 ft 465 kts 140°
2026-04-23 02:10 54.97343 127.02608 37103 ft 464 kts 140°
2026-04-23 02:10 54.92394 127.09883 37110 ft 464 kts 140°
2026-04-23 02:11 54.87482 127.17081 37106 ft 463 kts 140°
2026-04-23 02:11 54.82569 127.24257 37105 ft 462 kts 140°
2026-04-23 02:12 54.77698 127.31485 37105 ft 461 kts 139°
2026-04-23 02:12 54.72882 127.38879 37109 ft 461 kts 139°
2026-04-23 02:13 54.68087 127.46231 37113 ft 461 kts 139°
2026-04-23 02:13 54.63290 127.53528 37117 ft 462 kts 139°
2026-04-23 02:14 54.58433 127.60873 37108 ft 463 kts 139°
2026-04-23 02:14 54.53595 127.68161 37119 ft 464 kts 139°
2026-04-23 02:15 54.46293 127.79123 37116 ft 466 kts 139°
2026-04-23 02:16 54.41399 127.86440 37115 ft 467 kts 139°
2026-04-23 02:16 54.36489 127.93755 37108 ft 468 kts 139°
2026-04-23 02:17 54.31563 128.01071 37117 ft 469 kts 139°
2026-04-23 02:17 54.26596 128.08425 37108 ft 470 kts 139°
2026-04-23 02:18 54.21666 128.15698 37114 ft 468 kts 139°
2026-04-23 02:18 54.16765 128.22907 37111 ft 464 kts 139°
2026-04-23 02:19 54.11881 128.30070 37102 ft 463 kts 139°
2026-04-23 02:19 54.06973 128.37242 37102 ft 463 kts 139°
2026-04-23 02:20 54.02087 128.44362 37106 ft 464 kts 139°
2026-04-23 02:20 53.97166 128.51515 37108 ft 464 kts 139°
2026-04-23 02:21 53.92237 128.58660 37107 ft 466 kts 139°
2026-04-23 02:21 53.87303 128.65789 37105 ft 467 kts 139°
2026-04-23 02:22 53.82360 128.72911 37104 ft 468 kts 139°
2026-04-23 02:22 53.77375 128.80067 37099 ft 469 kts 139°
2026-04-23 02:23 53.72403 128.87182 37099 ft 469 kts 139°
2026-04-23 02:23 53.67437 128.94268 37092 ft 469 kts 139°
2026-04-23 02:24 53.62444 129.01365 37098 ft 469 kts 139°
2026-04-23 02:24 53.57464 129.08430 37089 ft 469 kts 139°
2026-04-23 02:25 53.52487 129.15461 37098 ft 468 kts 139°
2026-04-23 02:25 53.47468 129.22516 37097 ft 468 kts 139°
2026-04-23 02:26 53.42491 129.29489 37088 ft 467 kts 139°
2026-04-23 02:26 53.37511 129.36445 37093 ft 466 kts 139°
2026-04-23 02:27 53.32531 129.43383 37099 ft 466 kts 139°
2026-04-23 02:27 53.27534 129.50323 37099 ft 466 kts 139°
2026-04-23 02:28 53.22554 129.57218 37092 ft 466 kts 139°
2026-04-23 02:28 53.17577 129.64088 37093 ft 466 kts 139°
2026-04-23 02:29 53.12553 129.71000 37087 ft 466 kts 139°
2026-04-23 02:29 53.07559 129.77850 37097 ft 466 kts 139°
2026-04-23 02:30 53.02561 129.84688 37085 ft 467 kts 139°
2026-04-23 02:30 52.97533 129.91545 37088 ft 467 kts 139°
2026-04-23 02:31 52.92526 129.98347 37083 ft 467 kts 139°
2026-04-23 02:31 52.87482 130.05172 37089 ft 467 kts 139°
2026-04-23 02:32 52.82448 130.11967 37077 ft 467 kts 139°
2026-04-23 02:32 52.77412 130.18747 37074 ft 467 kts 139°
2026-04-23 02:33 52.72379 130.25502 37075 ft 467 kts 139°
2026-04-23 02:33 52.67340 130.32245 37081 ft 466 kts 139°
2026-04-23 02:34 52.62326 130.38933 37055 ft 466 kts 139°
2026-04-23 02:34 52.57265 130.45665 37053 ft 466 kts 139°
2026-04-23 02:35 52.52238 130.52331 37072 ft 466 kts 139°
2026-04-23 02:35 52.47170 130.59030 37068 ft 466 kts 139°
2026-04-23 02:36 52.42126 130.65677 37055 ft 466 kts 139°
2026-04-23 02:36 52.37080 130.72307 37056 ft 467 kts 139°
2026-04-23 02:37 52.32011 130.78948 37055 ft 467 kts 139°
2026-04-23 02:37 52.26933 130.85580 37052 ft 467 kts 139°
2026-04-23 02:38 52.21828 130.92227 37061 ft 468 kts 139°
2026-04-23 02:38 52.16740 130.98833 37050 ft 468 kts 139°
2026-04-23 02:39 52.11646 131.05430 37056 ft 469 kts 139°
2026-04-23 02:39 52.06556 131.11998 37052 ft 469 kts 139°
2026-04-23 02:40 52.01420 131.18599 37047 ft 470 kts 139°
2026-04-23 02:40 51.96301 131.25158 37046 ft 470 kts 139°
2026-04-23 02:41 51.91184 131.31701 37047 ft 470 kts 140°
2026-04-23 02:41 51.86028 131.38275 37047 ft 470 kts 140°
2026-04-23 02:42 51.80873 131.44829 37057 ft 470 kts 140°
2026-04-23 02:42 51.75741 131.51327 37046 ft 471 kts 140°
2026-04-23 02:43 51.70583 131.57832 37049 ft 471 kts 140°
2026-04-23 02:43 51.65442 131.64301 37048 ft 471 kts 140°
2026-04-23 02:44 51.60264 131.70800 37044 ft 470 kts 140°
2026-04-23 02:44 51.55121 131.77237 37048 ft 470 kts 140°
2026-04-23 02:45 51.49942 131.83698 37040 ft 470 kts 140°
2026-04-23 02:45 51.45634 131.89059 37043 ft 470 kts 140°
2026-04-23 02:46 51.40491 131.95442 37066 ft 470 kts 140°
2026-04-23 02:46 51.35301 132.01864 37048 ft 470 kts 140°
2026-04-23 02:47 51.30143 132.08230 37045 ft 470 kts 140°
2026-04-23 02:47 51.24973 132.14593 37048 ft 470 kts 140°
2026-04-23 02:48 51.19772 132.20975 37053 ft 470 kts 140°
2026-04-23 02:48 51.14489 132.27181 37051 ft 471 kts 142°
2026-04-23 02:49 51.09134 132.33141 37042 ft 471 kts 142°
2026-04-23 02:49 51.03758 132.39119 37047 ft 471 kts 142°
2026-04-23 02:50 50.98377 132.45137 37063 ft 471 kts 142°
2026-04-23 02:50 50.93052 132.51098 37049 ft 472 kts 142°
2026-04-23 02:51 50.87677 132.57100 37040 ft 472 kts 142°
2026-04-23 02:51 50.82322 132.63061 37040 ft 472 kts 142°
2026-04-23 02:52 50.76950 132.69022 37056 ft 472 kts 142°
2026-04-23 02:52 50.71548 132.74998 37030 ft 472 kts 142°
2026-04-23 02:53 50.66188 132.80912 37043 ft 472 kts 142°
2026-04-23 02:53 50.60834 132.86803 37053 ft 472 kts 142°
2026-04-23 02:54 50.55432 132.92730 37052 ft 472 kts 143°
2026-04-23 02:54 50.50044 132.98623 37030 ft 472 kts 143°
2026-04-23 02:55 50.44678 133.04477 37027 ft 472 kts 143°
2026-04-23 02:55 50.39255 133.10336 37034 ft 473 kts 144°
2026-04-23 02:56 50.33647 133.15710 37039 ft 473 kts 147°
2026-04-23 02:56 50.27944 133.20950 37028 ft 474 kts 147°
2026-04-23 02:57 50.22289 133.26176 37025 ft 474 kts 147°
2026-04-23 02:57 50.16600 133.31469 37024 ft 475 kts 147°
2026-04-23 02:58 50.10941 133.36745 37029 ft 476 kts 147°
2026-04-23 02:58 50.05266 133.42023 37013 ft 477 kts 147°
2026-04-23 02:58 50.02425 133.44657 36870 ft 473 kts 147°
2026-04-23 02:59 49.99582 133.47287 36547 ft 470 kts 147°
2026-04-23 02:59 49.96771 133.49884 35948 ft 471 kts 147°
2026-04-23 02:59 49.93976 133.52465 35514 ft 474 kts 146°
2026-04-23 02:59 49.91126 133.55093 35240 ft 472 kts 146°
2026-04-23 03:00 49.88292 133.57702 34903 ft 473 kts 146°
2026-04-23 03:00 49.85492 133.60306 34527 ft 474 kts 146°
2026-04-23 03:00 49.82657 133.62922 34361 ft 470 kts 147°
2026-04-23 03:00 49.79819 133.65474 33616 ft 471 kts 146°
2026-04-23 03:01 49.77018 133.67954 32987 ft 464 kts 146°
2026-04-23 03:01 49.74206 133.70390 32052 ft 464 kts 146°
2026-04-23 03:01 49.71404 133.72913 30865 ft 464 kts 143°
2026-04-23 03:01 49.68689 133.75438 30217 ft 444 kts 142°
2026-04-23 03:02 49.66055 133.77902 29500 ft 438 kts 142°
2026-04-23 03:02 49.63485 133.80301 28903 ft 436 kts 143°
2026-04-23 03:02 49.60889 133.82704 28260 ft 434 kts 143°
2026-04-23 03:02 49.58297 133.85081 27679 ft 432 kts 143°
2026-04-23 03:03 49.55706 133.87440 27095 ft 430 kts 143°
2026-04-23 03:03 49.53133 133.89771 26519 ft 428 kts 143°
2026-04-23 03:03 49.50565 133.92093 25947 ft 426 kts 143°
2026-04-23 03:03 49.48050 133.94362 25365 ft 421 kts 143°
2026-04-23 03:04 49.45521 133.96638 24815 ft 419 kts 143°
2026-04-23 03:04 49.43006 133.98902 24270 ft 417 kts 143°
2026-04-23 03:04 49.40502 134.01158 23697 ft 416 kts 143°
2026-04-23 03:04 49.38031 134.03378 23083 ft 413 kts 143°
2026-04-23 03:05 49.35584 134.05568 22472 ft 398 kts 144°
2026-04-23 03:05 49.33202 134.07696 21983 ft 395 kts 144°
2026-04-23 03:05 49.30828 134.09823 21451 ft 394 kts 144°
2026-04-23 03:05 49.28481 134.11927 20919 ft 394 kts 144°
2026-04-23 03:06 49.26112 134.14047 20370 ft 394 kts 145°
2026-04-23 03:06 49.23721 134.16187 19690 ft 398 kts 145°
2026-04-23 03:06 49.21321 134.18328 19136 ft 399 kts 146°
2026-04-23 03:06 49.18945 134.20444 18608 ft 399 kts 146°
2026-04-23 03:07 49.16537 134.22585 18022 ft 399 kts 146°
2026-04-23 03:07 49.14171 134.24682 17441 ft 384 kts 146°
2026-04-23 03:07 49.11892 134.26700 16930 ft 384 kts 146°
2026-04-23 03:07 49.09575 134.28751 16414 ft 384 kts 147°
2026-04-23 03:08 49.07249 134.30808 15880 ft 385 kts 147°
2026-04-23 03:08 49.04920 134.32873 15354 ft 386 kts 147°
2026-04-23 03:08 49.02619 134.34911 14844 ft 384 kts 147°
2026-04-23 03:08 49.00326 134.36934 14307 ft 373 kts 148°
2026-04-23 03:09 48.98071 134.38920 13805 ft 375 kts 148°
2026-04-23 03:09 48.95840 134.40883 13239 ft 369 kts 147°
2026-04-23 03:09 48.93605 134.42848 12720 ft 364 kts 148°
2026-04-23 03:09 48.91423 134.44766 12245 ft 360 kts 147°
2026-04-23 03:10 48.89254 134.46669 11749 ft 356 kts 148°
2026-04-23 03:10 48.87144 134.48521 11257 ft 352 kts 148°
2026-04-23 03:10 48.85027 134.50378 10798 ft 349 kts 147°
2026-04-23 03:10 48.82977 134.52169 10718 ft 327 kts 147°
2026-04-23 03:11 48.81069 134.53830 10604 ft 304 kts 148°
2026-04-23 03:11 48.79316 134.55358 10482 ft 283 kts 147°
2026-04-23 03:11 48.77642 134.56819 10387 ft 272 kts 147°
2026-04-23 03:11 48.76017 134.58238 10230 ft 264 kts 147°
2026-04-23 03:12 48.74447 134.59608 10088 ft 256 kts 147°
2026-04-23 03:12 48.72923 134.60938 9914 ft 249 kts 147°
2026-04-23 03:12 48.71447 134.62225 9627 ft 246 kts 147°
2026-04-23 03:12 48.69955 134.63525 9259 ft 246 kts 147°
2026-04-23 03:13 48.68470 134.64818 8918 ft 245 kts 147°
2026-04-23 03:13 48.67006 134.66092 8574 ft 245 kts 147°
2026-04-23 03:13 48.65525 134.67379 8230 ft 244 kts 147°
2026-04-23 03:13 48.64045 134.68663 7894 ft 244 kts 147°
2026-04-23 03:14 48.62595 134.69921 7600 ft 243 kts 147°
2026-04-23 03:14 48.61126 134.71194 7322 ft 242 kts 147°
2026-04-23 03:14 48.59665 134.72466 6986 ft 240 kts 144°
2026-04-23 03:14 48.58499 134.74172 6609 ft 230 kts 120°
2026-04-23 03:15 48.57643 134.76136 6417 ft 223 kts 121°
2026-04-23 03:15 48.56768 134.78027 6232 ft 215 kts 122°
2026-04-23 03:15 48.55915 134.79837 6046 ft 207 kts 122°
2026-04-23 03:15 48.55093 134.81562 5882 ft 198 kts 122°
2026-04-23 03:16 48.54299 134.83219 5604 ft 194 kts 122°
2026-04-23 03:16 48.53515 134.84847 5326 ft 189 kts 122°
2026-04-23 03:16 48.51970 134.88040 4676 ft 186 kts 122°
2026-04-23 03:17 48.51209 134.89607 4332 ft 187 kts 122°
2026-04-23 03:17 48.50438 134.91190 4054 ft 187 kts 123°
2026-04-23 03:17 48.49668 134.92769 3743 ft 186 kts 122°
2026-04-23 03:17 48.48913 134.94315 3489 ft 181 kts 122°
2026-04-23 03:18 48.48171 134.95830 3385 ft 180 kts 122°
2026-04-23 03:18 48.47416 134.97377 3309 ft 187 kts 122°
2026-04-23 03:18 48.46639 134.98962 3052 ft 190 kts 122°
2026-04-23 03:18 48.45857 135.00551 2815 ft 186 kts 122°
2026-04-23 03:19 48.45096 135.02099 2598 ft 181 kts 122°
2026-04-23 03:19 48.44350 135.03620 2429 ft 184 kts 121°
2026-04-23 03:19 48.43922 135.05339 2235 ft 170 kts 85°
2026-04-23 03:19 48.44326 135.06857 2180 ft 148 kts 48°
2026-04-23 03:20 48.45028 135.07874 2208 ft 139 kts 43°
2026-04-23 03:20 48.45734 135.08936 2016 ft 148 kts 41°
2026-04-23 03:20 48.46502 135.09922 1791 ft 141 kts 40°
2026-04-23 03:20 48.47215 135.10943 1406 ft 143 kts 46°
2026-04-23 03:21 48.47909 135.11984 1039 ft 139 kts 41°
2026-04-23 03:21 48.48634 135.12955 862 ft 140 kts 41°
2026-04-23 03:21 48.49349 135.13928 827 ft 140 kts 40°
2026-04-23 03:21 48.50079 135.14881 699 ft 141 kts 40°
2026-04-23 03:22 48.50825 135.15872 515 ft 143 kts 40°
2026-04-23 03:22 48.51559 135.16875 295 ft 141 kts 39°
2026-04-23 03:22 48.52264 135.17810 239 ft 120 kts 41°
2026-04-23 03:22 48.52722 135.18455 239 ft 43 kts 41°
2026-04-23 03:23 48.52902 135.18693 238 ft 16 kts 45°
2026-04-23 03:23 48.52939 135.18809 238 ft 12 kts 73°
2026-04-23 03:23 48.52962 135.18958 239 ft 19 kts 76°
2026-04-23 03:23 48.53002 135.19195 239 ft 25 kts 75°
2026-04-23 03:24 48.52962 135.19310 240 ft 16 kts 197°
2026-04-23 03:24 48.52825 135.19122 240 ft 42 kts 223°
2026-04-23 03:24 48.52567 135.18766 243 ft 46 kts 222°
2026-04-23 03:24 48.52370 135.18501 241 ft 37 kts 221°
2026-04-23 03:25 48.52201 135.18275 241 ft 29 kts 221°
2026-04-23 03:25 48.52119 135.18144 242 ft 14 kts 252°
2026-04-23 03:25 48.52155 135.18007 240 ft 15 kts 307°
2026-04-23 03:25 48.52225 135.17886 240 ft 15 kts 311°
2026-04-23 03:26 48.52298 135.17767 239 ft 15 kts 313°
2026-04-23 03:26 48.52367 135.17655 239 ft 13 kts 313°
2026-04-23 03:26 48.52429 135.17554 240 ft 13 kts 312°
2026-04-23 03:26 48.52490 135.17452 240 ft 13 kts 311°
2026-04-23 03:27 48.52538 135.17377 240 ft 8 kts 307°
2026-04-23 03:27 48.52572 135.17311 240 ft 6 kts 313°
2026-04-23 03:27 48.52579 135.17301 240 ft 0 kts 313°